This is the latest recevied weather packets stored in our database for station/object WD9EKA. If no packets are shown the sender has not sent any weather packets the latest 10 day(s).
| Time | Temp. | Humidity | Pressure | Rain* | Wind** | Luminosity | Snow |
|---|---|---|---|---|---|---|---|
| 1777475434 | 15° C | 70% | 1008.7 hPa | 0 mm | - | - | - |
| 1777475122 | 15° C | 71% | 1008.6 hPa | 0 mm | - | - | - |
| 1777474802 | 15° C | 71% | 1008.6 hPa | 0 mm | - | - | - |
| 1777474474 | 15° C | 74% | 1008.4 hPa | 0 mm | - | - | - |
| 1777474114 | 15° C | 75% | 1008.5 hPa | 0 mm | - | - | - |
| 1777473754 | 14.44° C | 74% | 1008.8 hPa | 0 mm | - | - | - |
| 1777473394 | 14.44° C | 75% | 1008.6 hPa | 0 mm | - | - | - |
| 1777473034 | 14.44° C | 77% | 1008.5 hPa | 0 mm | - | - | - |
| 1777472673 | 13.89° C | 79% | 1008.6 hPa | 0 mm | - | - | - |
| 1777472314 | 13.89° C | 80% | 1008.7 hPa | 0 mm | - | - | - |
| 1777471953 | 14.44° C | 82% | 1008.5 hPa | 0 mm | - | - | - |
| 1777471594 | 13.89° C | 82% | 1008.5 hPa | 0 mm | - | - | - |
| 1777471234 | 13.89° C | 85% | 1008.4 hPa | 0 mm | - | - | - |
| 1777470874 | 13.89° C | 89% | 1008.5 hPa | 0 mm | - | - | - |
| 1777470514 | 12.78° C | 95% | 1008.5 hPa | 0 mm | - | - | - |
| 1777470154 | 12.78° C | 99% | 1008.6 hPa | 0 mm | - | - | - |
| 1777469794 | 12.78° C | 99% | 1008.8 hPa | 0 mm | - | - | - |
| 1777469434 | 12.22° C | 99% | 1008.5 hPa | 0 mm | - | - | - |
| 1777469074 | 12.78° C | 99% | 1008.5 hPa | 0 mm | - | - | - |
| 1777468714 | 12.78° C | 99% | 1008.5 hPa | 0 mm | - | - | - |
| 1777468354 | 12.22° C | 99% | 1008.5 hPa | 0 mm | - | - | - |
| 1777467994 | 12.22° C | 99% | 1008.7 hPa | 0 mm | - | - | - |
| 1777467634 | 11.67° C | 99% | 1008.5 hPa | 0 mm | - | - | - |
| 1777466553 | 11.67° C | 99% | 1008.7 hPa | 0 mm | - | - | - |
| 1777466194 | 11.67° C | 99% | 1008.4 hPa | 0 mm | - | - | - |
* Rain latest hour (hover to see other rain measurements)
** Current wind speed in m/s (hover to see current wind gust speed)